W5ADC Weather Reports


time (UTC)temp
C
wind
direction
speed
KPH
gust
KPH
rain 1hr
cm
rain 24hr
cm
rain mn
cm
humidity
%
barometer
mb
20260906230827 36 156 4.8 8.0 0.00 0.00 0.00 44 1007.4
20260906230323 36 28 4.8 9.7 0.00 0.00 0.00 44 1007.3
20260906225820 36 155 8.0 12.9 0.00 0.00 0.00 43 1007.6
20260906225316 36 105 1.6 4.8 0.00 0.00 0.00 43 1007.4
20260906224812 36 92 3.2 4.8 0.00 0.00 0.00 43 1007.4
20260906224308 36 105 4.8 4.8 0.00 0.00 0.00 42 1007.6
20260906223804 36 141 6.4 9.7 0.00 0.00 0.00 42 1007.8
20260906223300 36 124 1.6 8.0 0.00 0.00 0.00 43 1007.5
20260906222758 36 97 3.2 8.0 0.00 0.00 0.00 43 1007.6
20260906222257 36 85 3.2 4.8 0.00 0.00 0.00 42 1007.5
20260906221755 36 112 3.2 4.8 0.00 0.00 0.00 42 1007.5
20260906221249 36 110 4.8 9.7 0.00 0.00 0.00 42 1007.6
20260906220745 36 131 6.4 16.1 0.00 0.00 0.00 43 1007.6
20260906220240 36 149 6.4 9.7 0.00 0.00 0.00 42 1007.6
20260906215739 36 163 3.2 9.7 0.00 0.00 0.00 42 1007.6
20260906215233 36 130 3.2 12.9 0.00 0.00 0.00 43 1007.6
20260906214731 37 137 3.2 9.7 0.00 0.00 0.00 44 1007.5
20260906214226 36 154 4.8 14.5 0.00 0.00 0.00 44 1007.6
20260906213720 36 137 6.4 11.3 0.00 0.00 0.00 42 1007.7
20260906213219 36 119 6.4 9.7 0.00 0.00 0.00 43 1007.6
20260906212717 37 180 3.2 3.2 0.00 0.00 0.00 42 1007.8
20260906212213 37 130 3.2 4.8 0.00 0.00 0.00 42 1007.9
20260906211707 36 96 1.6 8.0 0.00 0.00 0.00 42 1007.8
20260906211203 37 135 4.8 11.3 0.00 0.00 0.00 41 1008.2
20260906210658 36 139 6.4 14.5 0.00 0.00 0.00 42 1008.3
20260906210158 36 121 8.0 12.9 0.00 0.00 0.00 42 1008.2
20260906205653 36 117 6.4 9.7 0.00 0.00 0.00 43 1008.5
20260906205149 36 168 8.0 12.9 0.00 0.00 0.00 43 1008.3
20260906204649 36 123 9.7 11.3 0.00 0.00 0.00 43 1008.4
20260906204144 36 124 6.4 8.0 0.00 0.00 0.00 42 1008.5
20260906203643 37 90 4.8 12.9 0.00 0.00 0.00 44 1008.8
20260906203138 37 153 6.4 9.7 0.00 0.00 0.00 43 1008.7
20260906202635 36 173 4.8 11.3 0.00 0.00 0.00 44 1008.8
20260906202134 36 117 6.4 11.3 0.00 0.00 0.00 44 1008.8
20260906201629 37 153 6.4 8.0 0.00 0.00 0.00 43 1009.0
20260906201128 36 177 1.6 4.8 0.00 0.00 0.00 43 1008.8
20260906200625 35 87 3.2 9.7 0.00 0.00 0.00 46 1009.0
20260906200120 36 117 3.2 17.7 0.00 0.00 0.00 46 1009.0
20260906195615 36 161 6.4 8.0 0.00 0.00 0.00 44 1008.9
20260906195112 36 162 8.0 11.3 0.00 0.00 0.00 45 1008.9
20260906194607 36 185 6.4 12.9 0.00 0.00 0.00 45 1009.0
20260906194103 37 112 4.8 11.3 0.00 0.00 0.00 43 1009.2
20260906193557 36 115 3.2 11.3 0.00 0.00 0.00 46 1009.3
20260906193052 36 52 4.8 11.3 0.00 0.00 0.00 46 1009.2
20260906192548 36 141 4.8 14.5 0.00 0.00 0.00 46 1009.2
20260906192047 35 118 3.2 4.8 0.00 0.00 0.00 47 1009.3
20260906191542 35 106 6.4 14.5 0.00 0.00 0.00 48 1009.5
20260906191041 35 153 8.0 9.7 0.00 0.00 0.00 50 1009.5
20260906190541 35 156 9.7 14.5 0.00 0.00 0.00 49 1009.7
20260906190036 36 99 1.6 9.7 0.00 0.00 0.00 48 1009.6
20260906185535 35 77 3.2 11.3 0.00 0.00 0.00 49 1009.5
20260906185034 36 138 1.6 8.0 0.00 0.00 0.00 49 1009.8
20260906184529 34 163 4.8 9.7 0.00 0.00 0.00 51 1009.7
20260906184025 35 158 6.4 9.7 0.00 0.00 0.00 49 1009.9
20260906183521 35 150 11.3 14.5 0.00 0.00 0.00 50 1010.0
20260906183016 35 82 1.6 8.0 0.00 0.00 0.00 49 1009.8
20260906182511 35 230 4.8 8.0 0.00 0.00 0.00 51 1010.1
20260906182007 35 163 3.2 4.8 0.00 0.00 0.00 50 1010.1
20260906181502 35 123 4.8 8.0 0.00 0.00 0.00 50 1010.2
20260906180958 35 83 4.8 9.7 0.00 0.00 0.00 49 1010.2
20260906180452 35 128 8.0 11.3 0.00 0.00 0.00 50 1010.3
20260906175951 35 51 6.4 9.7 0.00 0.00 0.00 52 1010.3
20260906175445 35 129 4.8 11.3 0.00 0.00 0.00 50 1010.4
20260906174943 35 132 3.2 8.0 0.00 0.00 0.00 50 1010.5
20260906174437 35 167 1.6 3.2 0.00 0.00 0.00 51 1010.7
20260906173933 34 163 11.3 12.9 0.00 0.00 0.00 52 1010.7
20260906173428 34 102 4.8 14.5 0.00 0.00 0.00 53 1010.7
20260906172927 35 138 4.8 12.9 0.00 0.00 0.00 52 1010.8
20260906172424 35 95 3.2 8.0 0.00 0.00 0.00 52 1011.0
20260906171919 35 58 1.6 4.8 0.00 0.00 0.00 52 1011.1
20260906171413 34 87 1.6 3.2 0.00 0.00 0.00 53 1011.1
20260906170909 33 139 3.2 4.8 0.00 0.00 0.00 53 1010.9
20260906170405 33 135 4.8 8.0 0.00 0.00 0.00 53 1011.0
20260906165901 34 178 8.0 9.7 0.00 0.00 0.00 53 1011.0
20260906165355 33 88 4.8 12.9 0.00 0.00 0.00 55 1011.1
20260906164850 35 150 3.2 4.8 0.00 0.00 0.00 54 1010.9
20260906164349 34 114 1.6 8.0 0.00 0.00 0.00 55 1011.5
20260906163845 33 61 4.8 4.8 0.00 0.00 0.00 55 1011.3
20260906163341 33 74 3.2 9.7 0.00 0.00 0.00 55 1011.6
20260906162839 33 158 1.6 9.7 0.00 0.00 0.00 57 1011.1
20260906162337 33 165 4.8 8.0 0.00 0.00 0.00 57 1011.3
20260906161833 33 125 3.2 4.8 0.00 0.00 0.00 57 1011.0
20260906161332 33 131 0.0 4.8 0.00 0.00 0.00 61 1011.3
20260906160831 32 174 4.8 9.7 0.00 0.00 0.00 62 1011.1
20260906160325 32 163 4.8 8.0 0.00 0.00 0.00 63 1011.1
20260906155823 32 143 6.4 9.7 0.00 0.00 0.00 61 1011.4
20260906155317 32 91 6.4 9.7 0.00 0.00 0.00 62 1011.3
20260906154814 32 87 0.0 4.8 0.00 0.00 0.00 65 1011.4
20260906154308 31 81 1.6 8.0 0.00 0.00 0.00 67 1011.1
20260906153807 31 128 4.8 8.0 0.00 0.00 0.00 67 1011.1
20260906153301 32 104 4.8 8.0 0.00 0.00 0.00 67 1011.0
20260906152756 31 84 0.0 1.6 0.00 0.00 0.00 66 1010.9
20260906152251 31 8 3.2 8.0 0.00 0.00 0.00 71 1011.0
20260906151750 31 144 6.4 8.0 0.00 0.00 0.00 71 1011.0
20260906151246 31 124 1.6 3.2 0.00 0.00 0.00 70 1010.9
20260906150741 30 79 1.6 9.7 0.00 0.00 0.00 73 1010.8
20260906150237 30 69 1.6 4.8 0.00 0.00 0.00 72 1010.9
20260906145736 30 72 3.2 3.2 0.00 0.00 0.00 72 1010.8
20260906145234 30 144 3.2 3.2 0.00 0.00 0.00 73 1010.9
20260906144730 30 102 0.0 4.8 0.00 0.00 0.00 74 1011.0
20260906144225 30 34 1.6 8.0 0.00 0.00 0.00 75 1010.9
20260906143724 30 24 0.0 1.6 0.00 0.00 0.00 73 1010.9
20260906143222 30 53 0.0 1.6 0.00 0.00 0.00 75 1011.1
20260906142721 29 117 1.6 3.2 0.00 0.00 0.00 76 1010.9
20260906142216 29 102 0.0 3.2 0.00 0.00 0.00 77 1011.0
20260906141715 29 125 0.0 1.6 0.00 0.00 0.00 77 1011.0
20260906141210 28 137 0.0 0.0 0.00 0.00 0.00 77 1011.0
20260906140709 28 116 1.6 4.8 0.00 0.00 0.00 80 1010.9
20260906140205 28 97 0.0 3.2 0.00 0.00 0.00 81 1010.9
20260906135701 28 121 0.0 3.2 0.00 0.00 0.00 82 1010.9
20260906135157 28 128 1.6 1.6 0.00 0.00 0.00 82 1010.8
20260906134652 27 135 0.0 3.2 0.00 0.00 0.00 84 1010.7
20260906134147 27 109 0.0 3.2 0.00 0.00 0.00 84 1010.7
20260906133643 27 131 1.6 3.2 0.00 0.00 0.00 86 1010.7
20260906133138 26 60 1.6 3.2 0.00 0.00 0.00 87 1010.8
20260906132633 26 79 0.0 1.6 0.00 0.00 0.00 87 1011.0
20260906132129 26 115 0.0 1.6 0.00 0.00 0.00 88 1010.8
20260906131624 26 131 0.0 1.6 0.00 0.00 0.00 88 1010.9
20260906131119 26 123 0.0 1.6 0.00 0.00 0.00 89 1010.7
20260906130615 26 129 0.0 0.0 0.00 0.00 0.00 89 1010.8
20260906130109 25 138 0.0 1.6 0.00 0.00 0.00 90 1010.8
20260906125607 25 139 0.0 0.0 0.00 0.00 0.00 90 1010.5
20260906125100 25 121 0.0 0.0 0.00 0.00 0.00 91 1010.3
20260906124556 25 123 0.0 1.6 0.00 0.00 0.00 91 1010.5
20260906124051 25 86 1.6 1.6 0.00 0.00 0.00 91 1010.6
20260906123550 25 124 0.0 0.0 0.00 0.00 0.00 92 1010.5
20260906123046 25 128 0.0 0.0 0.00 0.00 0.00 92 1010.4
20260906122544 25 109 0.0 0.0 0.00 0.00 0.00 92 1010.4
20260906122041 25 115 0.0 0.0 0.00 0.00 0.00 92 1010.4
20260906121537 25 120 0.0 0.0 0.00 0.00 0.00 92 1010.2
20260906121033 25 130 0.0 0.0 0.00 0.00 0.00 92 1010.3
20260906120528 25 136 0.0 0.0 0.00 0.00 0.00 92 1010.2
20260906120025 25 126 0.0 0.0 0.00 0.00 0.00 92 1010.1
20260906115525 25 118 0.0 0.0 0.00 0.00 0.00 91 1010.1
20260906115020 25 127 0.0 0.0 0.00 0.00 0.00 91 1010.1
20260906114514 25 133 0.0 0.0 0.00 0.00 0.00 91 1010.0
20260906114010 25 129 0.0 0.0 0.00 0.00 0.00 91 1010.1
20260906113509 25 123 0.0 0.0 0.00 0.00 0.00 91 1010.2
20260906113005 25 122 0.0 0.0 0.00 0.00 0.00 91 1009.9
20260906112459 25 88 0.0 0.0 0.00 0.00 0.00 91 1010.1
20260906111955 25 126 0.0 0.0 0.00 0.00 0.00 91 1010.0
20260906111454 25 130 0.0 0.0 0.00 0.00 0.00 90 1010.0
20260906110949 25 142 0.0 0.0 0.00 0.00 0.00 90 1010.0
20260906110445 25 123 0.0 0.0 0.00 0.00 0.00 90 1010.0
20260906105944 25 125 0.0 0.0 0.00 0.00 0.00 90 1009.9
20260906105440 25 127 0.0 0.0 0.00 0.00 0.00 89 1009.9
20260906104936 25 138 0.0 0.0 0.00 0.00 0.00 89 1009.7
20260906104434 25 138 0.0 0.0 0.00 0.00 0.00 90 1009.6
20260906103933 25 138 0.0 0.0 0.00 0.00 0.00 89 1009.8
20260906103432 25 138 0.0 0.0 0.00 0.00 0.00 89 1009.8
20260906102927 25 136 0.0 0.0 0.00 0.00 0.00 89 1009.6
20260906102427 25 127 0.0 0.0 0.00 0.00 0.00 89 1009.6
20260906101922 25 158 0.0 0.0 0.00 0.00 0.00 89 1009.5
20260906101417 25 150 0.0 0.0 0.00 0.00 0.00 89 1009.6
20260906100912 25 157 0.0 0.0 0.00 0.00 0.00 88 1009.4
20260906100412 25 151 0.0 0.0 0.00 0.00 0.00 88 1009.7
20260906095907 25 151 0.0 0.0 0.00 0.00 0.00 87 1009.4
20260906095402 25 153 0.0 0.0 0.00 0.00 0.00 87 1009.6
20260906094856 26 166 0.0 0.0 0.00 0.00 0.00 87 1009.6
20260906094351 26 178 0.0 0.0 0.00 0.00 0.00 86 1009.3
20260906093847 26 164 0.0 0.0 0.00 0.00 0.00 86 1009.3
20260906093343 26 163 0.0 0.0 0.00 0.00 0.00 85 1009.2
20260906092837 26 164 0.0 0.0 0.00 0.00 0.00 85 1009.3
20260906092332 26 170 0.0 0.0 0.00 0.00 0.00 84 1009.3
20260906091828 26 155 0.0 0.0 0.00 0.00 0.00 84 1009.1
20260906091324 26 158 0.0 0.0 0.00 0.00 0.00 84 1009.0
20260906090820 26 157 0.0 0.0 0.00 0.00 0.00 83 1009.1
20260906090319 27 157 0.0 1.6 0.00 0.00 0.00 83 1009.1
20260906085819 27 154 0.0 1.6 0.00 0.00 0.00 83 1009.0
20260906085318 27 160 0.0 1.6 0.00 0.00 0.00 83 1008.9
20260906084813 27 152 1.6 1.6 0.00 0.00 0.00 82 1009.0
20260906084312 27 181 0.0 8.0 0.00 0.00 0.00 82 1008.9
20260906083807 27 170 0.0 3.2 0.00 0.00 0.00 82 1009.0
20260906083302 27 138 1.6 4.8 0.00 0.00 0.00 82 1008.7
20260906082757 27 154 1.6 4.8 0.00 0.00 0.00 81 1009.0
20260906082252 27 165 0.0 4.8 0.00 0.00 0.00 81 1009.0
20260906081748 27 195 3.2 4.8 0.00 0.00 0.00 81 1008.9
20260906081243 27 157 1.6 3.2 0.00 0.00 0.00 81 1008.9
20260906080739 27 162 1.6 3.2 0.00 0.00 0.00 80 1009.0
20260906080236 27 176 1.6 4.8 0.00 0.00 0.00 80 1009.0
20260906075729 27 172 0.0 1.6 0.00 0.00 0.00 80 1009.2
20260906075224 27 208 3.2 3.2 0.00 0.00 0.00 80 1009.1
20260906074720 27 204 3.2 3.2 0.00 0.00 0.00 80 1009.1
20260906074219 27 162 1.6 3.2 0.00 0.00 0.00 79 1009.1
20260906073713 27 168 1.6 8.0 0.00 0.00 0.00 80 1009.2
20260906073208 27 170 1.6 4.8 0.00 0.00 0.00 80 1009.0
20260906072704 27 147 1.6 1.6 0.00 0.00 0.00 80 1009.1
20260906072159 27 209 1.6 3.2 0.00 0.00 0.00 79 1009.0
20260906071655 27 203 0.0 1.6 0.00 0.00 0.00 79 1009.0
20260906071155 27 201 4.8 4.8 0.00 0.00 0.00 78 1009.2
20260906070652 27 196 1.6 4.8 0.00 0.00 0.00 78 1009.1
20260906070147 27 196 4.8 4.8 0.00 0.00 0.00 78 1009.4
20260906065647 27 206 1.6 1.6 0.00 0.00 0.00 77 1009.2
20260906065142 27 170 0.0 1.6 0.00 0.00 0.00 76 1009.3
20260906064638 28 172 1.6 1.6 0.00 0.00 0.00 75 1009.4
20260906064133 28 156 0.0 4.8 0.00 0.00 0.00 75 1009.3
20260906063628 28 165 1.6 4.8 0.00 0.00 0.00 75 1009.4
20260906063124 28 159 1.6 1.6 0.00 0.00 0.00 74 1009.3
20260906062620 28 171 1.6 4.8 0.00 0.00 0.00 74 1009.2
20260906062118 28 158 0.0 1.6 0.00 0.00 0.00 73 1009.2
20260906061615 28 185 4.8 9.7 0.00 0.00 0.00 73 1009.5
20260906061114 28 170 1.6 9.7 0.00 0.00 0.00 72 1009.5
20260906060611 28 145 3.2 4.8 0.00 0.00 0.00 72 1009.4
20260906060108 28 161 1.6 3.2 0.00 0.00 0.00 71 1009.3
20260906055603 28 140 4.8 4.8 0.00 0.00 0.00 71 1009.2
20260906055059 28 179 3.2 8.0 0.00 0.00 0.00 70 1009.3
20260906054558 28 158 3.2 4.8 0.00 0.00 0.00 70 1009.3
20260906054054 29 151 3.2 8.0 0.00 0.00 0.00 69 1009.5
20260906053550 29 166 1.6 8.0 0.00 0.00 0.00 69 1009.3
20260906053046 29 162 4.8 9.7 0.00 0.00 0.00 69 1009.4
20260906052541 29 170 3.2 4.8 0.00 0.00 0.00 69 1009.2
20260906052038 29 152 3.2 4.8 0.00 0.00 0.00 69 1009.2
20260906051533 29 182 1.6 4.8 0.00 0.00 0.00 68 1009.2
20260906051029 29 218 3.2 4.8 0.00 0.00 0.00 68 1009.2
20260906050524 29 238 4.8 8.0 0.00 0.00 0.00 68 1009.2
20260906050018 29 147 1.6 4.8 0.00 0.00 0.00 67 1009.2
20260906045517 29 172 0.0 4.8 0.00 0.00 0.00 68 1009.4
20260906045013 29 159 1.6 4.8 0.00 0.00 0.00 69 1009.1
20260906044508 29 169 4.8 4.8 0.00 0.00 0.00 68 1009.3
20260906044004 30 156 1.6 4.8 0.00 0.00 0.00 68 1009.3
20260906043459 30 187 4.8 11.3 0.00 0.00 0.00 68 1009.3
20260906042955 30 149 3.2 8.0 0.00 0.00 0.00 68 1009.4
20260906042454 30 152 4.8 12.9 0.00 0.00 0.00 68 1009.4
20260906041953 30 145 4.8 9.7 0.00 0.00 0.00 67 1009.3
20260906041450 30 152 3.2 12.9 0.00 0.00 0.00 67 1009.3
20260906040949 30 132 6.4 8.0 0.00 0.00 0.00 67 1009.2
20260906040444 30 176 3.2 11.3 0.00 0.00 0.00 66 1009.5
20260906035940 30 158 1.6 4.8 0.00 0.00 0.00 66 1009.2
20260906035435 30 169 1.6 8.0 0.00 0.00 0.00 66 1009.3
20260906034931 30 141 1.6 3.2 0.00 0.00 0.00 66 1009.4
20260906034425 30 181 3.2 12.9 0.00 0.00 0.00 66 1009.1
20260906033921 30 155 4.8 4.8 0.00 0.00 0.00 66 1009.1
20260906033421 30 171 3.2 9.7 0.00 0.00 0.00 66 1009.4
20260906032917 30 153 6.4 9.7 0.00 0.00 0.00 66 1009.3
20260906032413 30 168 4.8 9.7 0.00 0.00 0.00 66 1009.2
20260906031907 30 152 6.4 11.3 0.00 0.00 0.00 66 1009.3
20260906031403 30 158 3.2 8.0 0.00 0.00 0.00 66 1009.3
20260906030857 30 152 9.7 12.9 0.00 0.00 0.00 65 1009.4
20260906030353 30 151 3.2 8.0 0.00 0.00 0.00 65 1009.4
20260906025853 30 131 6.4 9.7 0.00 0.00 0.00 65 1009.2
20260906025347 30 140 6.4 11.3 0.00 0.00 0.00 64 1009.2
20260906024846 30 188 4.8 16.1 0.00 0.00 0.00 64 1009.3
20260906024345 30 133 4.8 14.5 0.00 0.00 0.00 64 1009.2
20260906023840 30 190 6.4 12.9 0.00 0.00 0.00 63 1009.2
20260906023337 30 146 6.4 12.9 0.00 0.00 0.00 63 1009.0
20260906022832 30 130 3.2 4.8 0.00 0.00 0.00 63 1008.8
20260906022326 30 147 4.8 12.9 0.00 0.00 0.00 63 1009.0
20260906021822 30 119 3.2 9.7 0.00 0.00 0.00 63 1009.0
20260906021321 31 149 8.0 11.3 0.00 0.00 0.00 62 1008.7
20260906020816 31 163 6.4 11.3 0.00 0.00 0.00 62 1008.8
20260906020315 31 204 3.2 8.0 0.00 0.00 0.00 62 1008.6
20260906015810 31 170 6.4 11.3 0.00 0.00 0.00 62 1008.5
20260906015308 31 152 1.6 9.7 0.00 0.00 0.00 61 1008.6
20260906014803 31 135 4.8 9.7 0.00 0.00 0.00 61 1008.6
20260906014259 31 167 4.8 4.8 0.00 0.00 0.00 61 1008.5
20260906013754 31 112 4.8 9.7 0.00 0.00 0.00 61 1008.5
20260906013249 31 174 6.4 11.3 0.00 0.00 0.00 60 1008.2
20260906012745 31 155 4.8 8.0 0.00 0.00 0.00 61 1008.3
20260906012239 31 111 6.4 14.5 0.00 0.00 0.00 60 1008.2
20260906011734 31 137 11.3 14.5 0.00 0.00 0.00 59 1008.1
20260906011229 32 132 8.0 16.1 0.00 0.00 0.00 58 1007.9
20260906010724 32 137 6.4 17.7 0.00 0.00 0.00 56 1007.7
20260906010221 33 141 9.7 20.9 0.00 0.00 0.00 54 1007.6
20260906005715 33 146 8.0 16.1 0.00 0.00 0.00 53 1007.6
20260906005215 33 147 4.8 16.1 0.00 0.00 0.00 52 1007.8
20260906004714 34 148 6.4 25.7 0.00 0.00 0.00 52 1007.4
20260906004209 34 168 4.8 4.8 0.00 0.00 0.00 51 1007.6
20260906003704 35 124 8.0 11.3 0.00 0.00 0.00 50 1007.7
20260906003200 35 135 4.8 8.0 0.00 0.00 0.00 46 1007.3
20260906002700 35 121 3.2 3.2 0.00 0.00 0.00 46 1007.3
20260906002154 35 172 1.6 3.2 0.00 0.00 0.00 46 1007.4
20260906001650 35 130 4.8 4.8 0.00 0.00 0.00 45 1007.4
20260906001149 35 133 3.2 11.3 0.00 0.00 0.00 44 1007.4
20260906000645 35 159 1.6 4.8 0.00 0.00 0.00 44 1007.3
20260906000141 35 113 3.2 11.3 0.00 0.00 0.00 44 1007.4
20260905235639 36 139 1.6 4.8 0.00 0.00 0.00 44 1007.4
20260905235135 36 131 3.2 3.2 0.00 0.00 0.00 43 1007.2
20260905234630 36 155 1.6 3.2 0.00 0.00 0.00 43 1007.0
20260905234126 36 130 0.0 1.6 0.00 0.00 0.00 43 1007.2
20260905233620 36 155 6.4 9.7 0.00 0.00 0.00 43 1007.1
20260905233114 36 144 4.8 8.0 0.00 0.00 0.00 43 1007.2
20260905232610 36 107 0.0 8.0 0.00 0.00 0.00 42 1007.3
20260905232106 36 115 1.6 8.0 0.00 0.00 0.00 42 1007.2
20260905231600 36 133 1.6 8.0 0.00 0.00 0.00 42 1007.3
20260905231057 36 76 1.6 8.0 0.00 0.00 0.00 42 1007.3